Terminal Aerodrome Forecast
Issued by NWS

Home | Current Version | Previous Version | Graphics & Text | Print | Product List | Glossary On
Versions: 1 2 3 4 5 6 7 8 9 10 11 12 13 14 15
000
FTUS42 KMHX 011405 AAA
TAFOAJ
TAF AMD
KOAJ 011405Z 0114/0212 27006KT P6SM OVC012
     FM011600 20009G16KT P6SM SCT030
     FM012300 21004KT P6SM SKC
      AMD LTD TO CLD VIS AND WIND=

USA.gov is the U.S. government's official web portal to all federal, state and local government web resources and services.